CW8484 Weather Reports


time (UTC)temp
C
wind
direction
speed
KPH
gust
KPH
rain 1hr
cm
rain 24hr
cm
rain mn
cm
humidity
%
barometer
mb
20260506231404 6 325 0.0 1.6 0.00 1.63 1.45 93 1006.2
20260506230425 6 325 0.0 3.2 0.00 1.63 1.45 93 1006.3
20260506225403 6 325 0.0 0.0 0.00 1.63 1.45 94 1006.3
20260506224404 6 325 0.0 0.0 0.00 1.63 1.45 93 1006.5
20260506223403 6 325 0.0 4.8 0.00 1.63 1.45 93 1006.6
20260506222403 6 325 0.0 1.6 0.00 1.63 1.45 93 1006.5
20260506221403 6 324 0.0 4.8 0.00 1.63 1.45 93 1006.6
20260506220403 6 325 0.0 1.6 0.00 1.63 1.45 93 1006.7
20260506215403 6 325 0.0 0.0 0.03 1.63 1.45 93 1006.4
20260506214404 6 325 0.0 8.0 0.03 1.63 1.45 93 1006.6
20260506213403 6 325 0.0 9.7 0.03 1.63 1.45 93 1006.5
20260506212403 6 343 1.6 8.0 0.03 1.63 1.45 93 1006.4
20260506211403 6 316 3.2 6.4 0.00 1.60 1.42 93 1006.1
20260506210404 6 319 0.0 9.7 0.00 1.60 1.42 93 1006.2
20260506205403 6 274 3.2 6.4 0.08 1.60 1.42 93 1006.5
20260506204425 6 272 4.8 12.9 0.08 1.60 1.42 93 1006.5
20260506203404 6 350 1.6 8.0 0.08 1.60 1.42 93 1006.3
20260506202403 6 325 0.0 6.4 0.05 1.57 1.40 93 1006.3
20260506201403 6 300 0.0 11.3 0.03 1.57 1.37 93 1006.2
20260506200403 6 354 1.6 6.4 0.03 1.78 1.37 93 1006.2
20260506195404 6 351 1.6 6.4 0.03 1.83 1.35 93 1006.1
20260506194425 6 351 0.0 8.0 0.03 1.83 1.35 93 1006.0
20260506193446 6 354 1.6 8.0 0.00 1.80 1.32 93 1005.9
20260506192403 6 12 0.0 6.4 0.00 1.80 1.32 93 1005.8
20260506191403 6 12 1.6 6.4 0.00 1.80 1.32 93 1005.8
20260506190426 6 342 1.6 6.4 0.00 1.96 1.32 93 1005.9
20260506185403 6 351 0.0 4.8 0.05 1.98 1.32 93 1005.9
20260506184424 6 354 1.6 6.4 0.05 1.98 1.32 93 1005.9
20260506183403 6 354 0.0 8.0 0.03 1.98 1.30 93 1006.1
20260506182403 6 9 4.8 14.5 0.03 2.11 1.30 93 1006.4
20260506181404 6 343 3.2 9.7 0.00 2.13 1.27 93 1006.4
20260506180403 6 12 3.2 11.3 0.00 2.13 1.27 93 1006.6
20260506175403 6 5 0.0 4.8 0.05 2.13 1.27 93 1006.6
20260506174404 5 5 1.6 17.7 0.05 2.13 1.27 93 1006.7
20260506173404 6 338 3.2 9.7 0.03 2.11 1.24 93 1006.7
20260506172403 5 328 0.0 9.7 0.03 2.11 1.24 93 1006.7
20260506171403 5 313 0.0 12.9 0.00 2.08 1.22 93 1006.8
20260506170403 5 351 1.6 12.9 0.00 2.08 1.22 93 1006.5
20260506165403 5 335 1.6 6.4 0.15 2.06 1.19 93 1006.9
20260506164402 5 360 0.0 8.0 0.13 2.03 1.17 93 1006.9
20260506163403 5 349 1.6 9.7 0.10 2.01 1.14 93 1007.1
20260506162445 5 340 1.6 14.5 0.08 1.98 1.12 93 1007.1
20260506161403 5 348 0.0 14.5 0.05 1.96 1.09 93 1007.1
20260506160424 5 334 3.2 12.9 0.03 1.93 1.07 92 1007.1
20260506155403 5 12 0.0 8.0 0.28 1.88 1.02 92 1007.3
20260506154403 5 19 0.0 6.4 0.23 1.83 0.97 92 1007.3
20260506153403 5 9 0.0 8.0 0.18 1.78 0.91 92 1007.4
20260506152403 5 292 1.6 8.0 0.13 1.73 0.86 92 1007.6
20260506151403 5 351 3.2 9.7 0.08 1.68 0.81 92 1007.2
20260506150445 6 302 1.6 11.3 0.03 1.63 0.76 92 1007.0
20260506145403 5 6 1.6 12.9 0.15 1.60 0.74 92 1006.9
20260506144403 6 354 1.6 16.1 0.10 1.55 0.69 92 1007.1
20260506143403 6 350 1.6 9.7 0.08 1.52 0.66 92 1007.0
20260506142403 6 15 0.0 9.7 0.05 1.50 0.64 92 1007.1
20260506141402 5 353 3.2 9.7 0.05 1.50 0.64 92 1007.3
20260506140424 6 5 0.0 14.5 0.03 1.47 0.61 92 1007.1
20260506135425 6 5 3.2 12.9 0.03 1.42 0.56 92 1007.1
20260506134403 6 10 3.2 14.5 0.03 1.42 0.56 91 1006.8
20260506133403 6 342 4.8 9.7 0.00 1.40 0.53 91 1007.1
20260506132403 6 297 1.6 6.4 0.00 1.40 0.53 92 1007.2
20260506131403 6 296 0.0 6.4 0.00 1.40 0.53 91 1007.5
20260506130403 5 295 1.6 4.8 0.00 1.40 0.53 91 1007.4
20260506125403 6 295 0.0 4.8 0.10 1.37 0.51 91 1007.4
20260506124403 6 293 1.6 12.9 0.10 1.37 0.51 91 1007.7
20260506123403 6 307 0.0 6.4 0.08 1.35 0.48 91 1007.4
20260506122403 6 285 1.6 6.4 0.05 1.32 0.46 91 1007.4
20260506121404 6 283 3.2 11.3 0.05 1.32 0.46 91 1008.0
20260506120403 6 281 0.0 4.8 0.00 1.27 0.41 92 1008.1
20260506115403 6 277 0.0 4.8 0.10 1.24 0.38 92 1008.1
20260506114403 7 277 0.0 11.3 0.08 1.22 0.36 92 1008.3
20260506113403 7 11 0.0 0.0 0.05 1.19 0.33 92 1008.1
20260506112402 7 11 0.0 8.0 0.03 1.17 0.30 91 1007.8
20260506111403 7 15 0.0 3.2 0.00 1.14 0.28 91 1007.3
20260506110402 7 15 0.0 3.2 0.00 1.14 0.28 91 1007.2
20260506105403 7 16 0.0 4.8 0.03 1.14 0.28 91 1007.2
20260506104403 7 16 0.0 3.2 0.00 1.12 0.25 91 1007.4
20260506103402 7 16 0.0 3.2 0.00 1.12 0.25 91 1007.2
20260506102403 7 16 0.0 0.0 0.00 1.12 0.25 91 1007.2
20260506101402 7 16 0.0 0.0 0.00 1.12 0.25 91 1007.4
20260506100425 7 16 0.0 4.8 0.00 1.12 0.25 91 1007.3
20260506095402 7 16 0.0 4.8 0.08 1.12 0.25 91 1007.1
20260506094403 7 16 0.0 6.4 0.08 1.12 0.25 90 1007.6
20260506093423 7 355 0.0 3.2 0.05 1.09 0.23 91 1007.7
20260506092425 7 354 0.0 8.0 0.03 1.07 0.20 91 1007.7
20260506091403 8 1 1.6 6.4 0.03 1.07 0.20 91 1007.4
20260506090403 8 327 0.0 4.8 0.00 1.04 0.18 91 1008.1
20260506085403 8 327 0.0 3.2 0.00 1.04 0.18 91 1008.0
20260506084403 8 327 0.0 6.4 0.00 1.04 0.18 90 1007.4
20260506083403 8 312 0.0 6.4 0.00 1.04 0.18 90 1007.7
20260506082403 8 244 0.0 1.6 0.00 1.04 0.18 91 1007.7
20260506081403 8 244 0.0 0.0 0.00 1.04 0.18 90 1007.7
20260506080403 8 244 0.0 1.6 0.00 1.04 0.18 90 1007.3
20260506073403 8 242 0.0 4.8 0.00 1.02 0.15 91 1007.3
20260506072403 8 242 0.0 0.0 0.00 1.02 0.15 91 1007.7
20260506071403 8 246 3.2 9.7 0.00 1.02 0.15 91 1007.5
20260506070424 8 327 0.0 0.0 0.00 1.02 0.15 91 1007.0
20260506062424 9 327 0.0 4.8 0.00 1.02 0.15 91 1007.1
20260506061402 9 327 1.6 6.4 0.00 1.02 0.15 91 1007.5
20260506060403 9 329 0.0 4.8 0.00 1.02 0.15 91 1007.4
20260506051403 10 232 0.0 0.0 0.00 0.99 0.13 91 1007.4
20260506050403 10 232 0.0 0.0 0.00 0.99 0.13 91 1007.5
20260506044403 10 232 0.0 0.0 0.15 0.99 0.13 90 1007.1
20260506043424 10 232 0.0 0.0 0.10 0.94 0.08 90 1007.3
20260506042403 10 232 0.0 0.0 0.08 0.91 0.05 89 1006.8
20260506041403 10 232 0.0 0.0 0.05 0.89 0.03 89 1006.8
20260506040424 10 232 0.0 0.0 0.03 0.86 0.00 88 1007.0
20260506035423 11 232 0.0 0.0 0.15 0.86 0.86 87 1006.7
20260506034403 11 237 1.6 9.7 0.10 0.81 0.81 85 1006.7
20260506033402 11 252 0.0 3.2 0.08 0.79 0.79 86 1006.4
20260506032403 11 252 1.6 12.9 0.08 0.79 0.79 84 1006.4
20260506031402 12 255 1.6 11.3 0.08 0.79 0.79 82 1006.3
20260506030403 12 265 6.4 17.7 0.03 0.74 0.74 78 1006.2
20260506025424 13 259 9.7 22.5 0.03 0.71 0.71 74 1006.1
20260506024402 13 244 8.0 24.1 0.00 0.69 0.69 70 1005.8
20260506023403 14 261 9.7 25.7 0.00 0.69 0.69 70 1005.7
20260506020405 14 254 12.9 22.5 0.00 0.69 0.69 75 1005.7
20260506015405 15 257 12.9 29.0 0.00 0.69 0.69 77 1006.1
20260506014404 15 253 11.3 22.5 0.00 0.69 0.69 83 1005.7
20260506013405 15 209 1.6 14.5 0.00 0.69 0.69 85 1004.9
20260506012426 15 183 3.2 6.4 0.00 0.69 0.69 85 1004.6
20260506011406 15 183 0.0 6.4 0.00 0.69 0.69 85 1004.4
20260506010426 15 182 1.6 6.4 0.00 0.69 0.69 84 1004.3
20260506005405 15 182 0.0 8.0 0.00 0.69 0.69 84 1004.0
20260506004425 15 175 4.8 11.3 0.00 0.69 0.69 83 1004.0
20260506003405 16 174 1.6 12.9 0.00 0.69 0.69 82 1003.6
20260506002404 16 192 3.2 12.9 0.00 0.69 0.69 81 1003.5
20260506001405 16 178 4.8 19.3 0.00 0.69 0.69 81 1003.1
20260506000405 16 182 4.8 16.1 0.00 0.69 0.69 80 1003.4
20260505235404 17 184 3.2 16.1 0.00 0.69 0.69 78 1003.4
20260505234405 16 181 8.0 22.5 0.00 0.69 0.69 77 1003.1
20260505233404 15 187 6.4 12.9 0.00 0.69 0.69 82 1003.2
20260505232405 15 213 4.8 19.3 0.00 0.69 0.69 85 1003.3